Flag for U.S.A. Weather past 2 weeks in Minot, North Dakota, U.S.A.

Now
68 °F

Overcast.


Feels Like: 68 °F
Forecast: 62 / 79 °F
Wind: 14 mph from East

Location: Minot International Airport

Current Time: Jul 23, 2014 at 12:12:34 PM

Latest Report: Jul 23, 2014 at 10:54 AM


Visibility: 10 mi

Pressure: 30.26 "Hg

Humidity: 84%

Dew point: 63 °F

Location of MinotLocation

Historic Weather in Minot — Graph

°F

Minot temperature yesterday

Maximum temperature yesterday: 77 °F (at 6:54 PM)
Minimum temperature yesterday: 59 °F (at 5:54 AM)
Average temperature yesterday: 66 °F

Past Weeks' High & Low Weather Summary

 TemperatureHumidityPressure
High90 °F (Jul 20, 1:54 PM)100% (Jul 16, 9:54 AM)30.32 "Hg (Jul 16, 9:54 AM)
Low49 °F (Jul 15, 5:54 AM)28% (Jul 20, 1:54 PM)29.55 "Hg (Jul 20, 3:54 AM)
Average68 °F65%29.94 "Hg
* Reported Jul 8 10:54 AM — Jul 23 10:54 AM, Minot, Weather by CustomWeather, © 2014

Note: Actual official high and low records may vary slightly from our data, if they occured in-between our weather recording intervals... More about our weather records

Advertising

Minot weather history for July 10, 2014

 ConditionsComfort  
Time TempWeatherWind HumidityBarometerVisibility
12:54 AM
Jul 10
63 °FClear.7 mph84%29.88 "Hg8 mi
1:54 AM63 °FClear.8 mph81%29.85 "Hg8 mi
2:54 AM63 °FClear.7 mph84%29.84 "Hg7 mi
3:54 AM66 °FClear.17 mph78%29.82 "Hg6 mi
4:54 AM66 °FClear.16 mph75%29.81 "Hg6 mi
5:54 AM65 °FClear.15 mph78%29.81 "Hg4 mi
6:54 AM65 °FClear.16 mph78%29.80 "Hg5 mi
7:54 AM67 °FSunny.17 mph73%29.81 "Hg6 mi
8:54 AM68 °FSunny.16 mph68%29.82 "Hg7 mi
9:54 AM69 °FSunny.13 mph66%29.82 "Hg7 mi
10:54 AM72 °FSunny.12 mph64%29.80 "Hg9 mi
11:54 AM74 °FSunny.14 mph57%29.79 "Hg10 mi
12:54 PM72 °FSunny.16 mph64%29.78 "Hg10 mi
1:54 PM74 °FSunny.14 mph64%29.76 "Hg10 mi
2:54 PM76 °FSunny.12 mph62%29.77 "Hg10 mi
3:54 PM79 °FSunny.14 mph58%29.75 "Hg10 mi
4:54 PM81 °FSunny.14 mph56%29.74 "Hg10 mi
5:54 PM81 °FSunny.14 mph56%29.73 "Hg10 mi
6:54 PM80 °FSunny.12 mph56%29.72 "Hg10 mi
7:54 PM79 °FSunny.12 mph60%29.71 "Hg10 mi
8:54 PM77 °FSunny.13 mph66%29.72 "Hg10 mi
9:54 PM74 °FSunny.8 mph76%29.72 "Hg10 mi
10:54 PM73 °FPartly cloudy.3 mph79%29.74 "Hg10 mi
11:54 PM71 °FPassing clouds.12 mph87%29.80 "Hg10 mi
Weather by CustomWeather, © 2014

See weather overviewHow to use our weather pages